Theta_e
314 314 314 318 319 321 324 325 326 325 323 320 320 320 318 320 321 321 321 320 320 320 320 320 320 319 320 319 320 318 319 320 319 323 326 324 318 319 318 319 319 322 333 334 332 335 334 333 335 338 340 340 340 341 339 338 337 336 335 334 333 331 328 324 325 326 326 326 322 319 318 320 326 328 328 329 330 330 330 329 331 334 335 335 332 329 327 325 326 326 326 326 325 325 319 312 315
314 315 316 319 321 324 326 325 325 323 321 319 319 318 318 321 320 320 320 320 320 320 320 320 320 319 320 320 320 320 319 320 321 323 325 326 323 320 318 319 321 325 335 336 334 334 334 333 333 336 338 340 340 340 340 338 338 337 336 334 333 331 329 324 322 324 324 323 319 318 319 319 323 326 328 329 330 330 330 330 331 333 335 335 333 330 329 328 328 327 326 324 322 321 317 311 311
315 316 318 322 324 325 327 325 324 321 319 317 317 318 319 320 319 320 319 319 320 319 320 320 320 319 321 320 320 320 320 321 322 323 323 326 325 318 318 318 320 327 335 339 338 335 333 333 333 335 336 339 340 339 339 338 338 338 337 335 332 332 329 325 322 322 323 322 318 319 321 323 324 325 327 329 330 329 329 330 331 333 334 335 333 330 328 325 322 318 316 315 314 313 312 311 310
317 318 321 324 326 326 327 327 325 321 318 317 316 319 320 319 319 319 319 319 320 319 320 320 319 319 320 320 320 320 320 321 322 323 320 320 319 317 318 318 319 324 334 342 340 335 333 333 333 334 335 338 338 338 339 338 337 337 336 334 332 332 329 328 325 322 322 321 319 322 326 327 326 327 327 327 328 329 328 328 331 332 333 333 330 327 322 317 313 311 309 309 309 309 310 310 310
318 319 321 324 328 327 326 325 324 322 319 318 317 319 319 318 318 318 319 319 319 319 319 319 319 319 319 319 320 320 319 321 321 321 319 317 316 316 318 318 319 320 330 342 341 334 333 333 332 332 334 338 338 338 339 338 337 337 335 333 332 331 330 330 328 322 321 321 322 326 329 328 327 327 327 326 328 328 326 327 329 330 330 329 326 321 317 314 311 309 308 308 308 308 310 310 310
319 320 320 321 326 324 325 322 321 321 320 320 318 318 319 318 318 318 318 318 318 317 318 319 319 319 319 319 319 319 318 320 321 320 318 317 316 316 317 317 319 319 326 340 341 335 333 334 332 331 333 338 339 338 338 337 336 336 335 333 332 331 330 331 329 323 322 324 327 330 330 329 328 328 328 327 328 326 325 328 329 327 326 324 320 318 316 314 311 309 308 307 308 308 309 309 309
320 322 322 324 325 323 327 323 320 321 320 321 319 318 318 318 318 318 318 318 317 316 317 318 319 318 318 319 319 317 316 318 319 318 318 317 316 315 316 319 321 319 326 339 341 335 333 334 332 331 333 337 338 337 337 336 336 336 335 333 332 332 330 331 330 323 322 327 329 332 331 330 329 329 328 327 327 326 325 327 327 325 322 320 318 318 318 316 312 309 308 307 307 308 308 309 309
320 323 323 326 328 324 326 324 322 321 320 320 319 319 318 318 319 318 318 317 318 317 317 317 318 318 318 320 320 318 315 316 317 317 318 317 316 315 316 319 322 325 330 336 336 334 332 331 332 333 335 337 337 338 337 337 336 336 335 334 334 333 331 331 331 324 322 327 330 332 333 331 330 329 329 328 327 327 327 327 324 322 319 320 322 322 321 320 316 311 308 306 306 306 307 307 308
321 322 322 326 328 323 323 323 322 320 319 320 318 318 318 318 319 318 318 317 318 318 317 317 317 317 318 319 319 317 315 315 315 315 318 316 316 315 315 316 320 326 330 331 331 331 329 327 329 332 335 336 336 337 337 337 335 336 335 334 334 333 332 332 332 328 322 326 331 333 334 332 332 331 331 330 329 329 328 325 324 323 322 324 327 326 324 323 319 313 308 306 305 305 305 305 305
321 321 322 326 325 321 320 322 322 321 320 319 318 318 318 318 318 318 318 317 318 318 317 318 318 316 317 319 317 315 314 314 314 315 316 316 316 315 316 315 316 319 322 327 326 324 324 324 327 331 333 335 335 335 337 337 336 335 335 334 334 333 333 332 332 331 323 324 331 333 333 333 333 332 332 331 330 330 329 326 326 327 327 329 329 327 326 324 322 317 311 306 304 304 304 304 304
322 320 319 324 323 319 319 321 323 322 320 319 319 318 318 318 318 318 318 318 318 318 317 317 318 316 317 318 316 315 314 314 314 314 315 315 316 315 315 315 316 316 317 322 320 317 320 321 325 328 331 334 334 335 337 337 336 336 335 334 334 333 333 332 331 332 325 324 331 332 333 333 333 333 332 332 331 331 331 329 329 330 331 331 330 328 327 326 324 321 315 307 304 304 304 304 304
323 322 320 322 323 321 321 323 323 322 321 319 318 318 318 318 318 318 318 318 318 318 317 317 317 316 318 318 315 314 314 314 314 314 314 314 315 315 315 314 315 316 316 318 318 316 317 319 322 325 328 332 334 335 335 336 337 336 335 334 334 333 332 332 330 332 327 325 331 332 333 333 333 333 332 332 330 331 332 331 331 331 330 330 328 326 325 324 323 323 320 311 305 303 303 304 305
322 322 322 321 323 324 321 322 323 322 321 319 318 317 317 317 318 318 318 318 318 318 317 316 317 317 317 318 316 315 314 314 314 314 314 314 314 314 315 315 315 315 316 317 318 317 316 317 320 323 326 329 332 334 334 336 337 336 336 334 334 333 332 331 330 331 329 327 331 332 333 333 332 333 333 332 331 331 331 331 331 329 328 327 325 323 321 321 319 320 321 315 307 303 303 304 305
321 320 321 323 323 322 321 323 323 321 320 319 318 317 317 318 317 318 318 318 317 317 316 316 317 317 316 317 316 315 315 314 314 314 314 314 314 314 314 315 315 315 315 316 316 316 316 316 317 320 323 326 330 332 333 334 336 337 336 336 335 334 332 331 329 330 329 327 329 332 332 332 332 333 332 332 332 331 331 331 330 328 327 325 324 323 322 321 319 319 321 318 310 305 303 303 305
320 319 322 324 320 319 321 324 322 320 319 318 318 317 317 317 317 317 317 317 317 317 316 316 317 317 316 317 316 315 315 314 314 314 314 314 313 313 314 314 315 315 315 315 316 315 316 316 315 316 319 323 326 328 331 331 334 336 336 336 336 336 333 331 329 329 329 327 327 330 332 332 332 332 332 332 332 332 332 331 330 328 327 326 325 324 323 323 322 321 321 319 313 308 304 303 304
316 319 324 322 319 319 319 322 321 320 319 318 317 317 317 317 317 317 317 316 317 317 317 316 316 316 316 316 314 314 314 314 314 314 314 314 315 315 314 314 315 315 315 315 315 315 315 316 315 315 316 319 324 326 328 329 331 333 335 336 336 336 335 332 330 328 328 328 326 327 330 330 331 331 331 332 333 333 333 332 331 330 328 328 326 325 324 324 323 322 322 319 315 311 307 303 303
315 321 324 321 320 318 318 320 320 319 319 318 317 318 318 317 317 317 317 316 316 317 316 316 316 315 315 314 313 313 314 314 314 314 314 316 320 320 317 316 315 315 315 315 315 315 315 315 316 316 314 318 326 327 328 330 331 332 332 333 335 336 336 335 332 329 327 327 326 326 326 327 328 329 330 331 332 333 333 332 331 331 330 329 326 325 325 324 323 321 321 319 316 313 310 306 303
320 326 323 320 321 318 318 320 319 320 319 318 317 318 318 317 317 317 316 316 316 317 316 315 315 314 314 313 313 313 314 314 313 313 313 316 321 321 318 316 315 314 315 316 315 315 315 315 315 316 315 316 324 328 330 332 333 334 332 331 333 334 335 336 334 331 328 326 326 327 326 326 327 328 329 329 331 331 331 330 331 332 332 330 327 326 326 324 323 321 320 319 317 314 312 309 305
321 325 321 320 320 318 318 319 319 319 319 318 318 317 317 317 317 317 316 317 317 317 316 315 315 315 315 314 313 313 313 313 313 313 313 314 317 318 317 315 314 314 315 315 316 316 315 315 315 315 317 315 319 326 330 332 333 334 334 332 332 332 333 335 335 333 330 327 326 328 328 328 329 329 330 330 331 330 329 328 329 331 330 329 328 327 326 325 325 324 321 318 317 315 313 311 308
318 320 321 320 318 317 317 318 318 318 318 318 318 317 316 316 317 316 316 317 317 316 315 315 316 315 315 314 313 313 313 313 313 313 313 313 313 314 314 313 313 314 314 314 315 316 316 315 315 314 316 316 317 321 326 330 332 333 334 333 332 331 331 333 334 333 331 330 328 328 328 329 331 331 331 331 331 330 329 327 327 328 328 328 328 327 326 326 326 325 323 319 317 316 315 313 310
317 318 320 318 316 317 316 318 318 317 317 317 317 316 316 317 316 316 316 316 317 315 314 314 315 314 314 314 313 312 312 313 313 313 313 313 313 313 313 313 313 313 313 314 314 314 315 315 316 315 315 315 317 318 321 327 330 333 334 333 332 332 332 332 332 332 332 331 330 329 328 329 332 332 332 331 330 330 328 327 326 327 327 328 328 327 327 326 325 325 324 322 319 317 317 316 313
317 316 318 317 315 317 317 317 317 316 316 316 317 316 316 317 316 316 316 317 317 315 313 313 313 313 312 313 312 312 312 312 312 313 313 313 313 313 313 313 313 314 313 314 313 313 313 314 314 315 316 315 317 318 320 326 328 331 333 333 333 333 334 333 333 333 333 332 331 331 331 330 331 332 332 332 331 330 329 328 327 327 327 329 328 327 327 327 325 325 324 323 321 319 319 318 315
317 318 317 317 317 317 317 317 316 316 316 316 316 316 316 316 316 316 316 316 316 315 313 312 312 311 311 311 312 312 312 312 312 312 313 313 313 313 313 314 314 314 314 314 314 314 314 313 313 313 314 315 317 319 323 328 329 330 332 333 333 333 334 334 334 334 334 333 332 332 333 331 331 332 332 333 332 331 330 329 328 327 328 329 328 328 328 327 326 325 325 324 323 321 319 319 317
318 318 317 317 317 317 317 317 316 315 316 316 316 316 316 316 316 316 316 315 315 314 313 312 312 311 311 311 311 312 312 312 312 312 313 313 313 313 313 313 314 314 314 314 314 314 314 314 314 313 313 314 316 319 324 329 330 330 331 331 332 333 334 334 334 334 334 333 333 333 333 332 332 332 332 333 332 332 332 331 329 328 329 329 328 328 327 327 327 326 325 324 324 322 321 320 318
319 318 318 317 317 317 317 317 316 315 315 316 316 315 315 316 316 316 315 314 313 313 312 311 311 311 311 311 311 312 312 312 312 313 313 313 313 313 313 313 313 314 314 314 314 314 314 314 314 313 313 312 315 320 325 330 330 330 330 329 330 331 332 333 334 334 334 333 333 333 333 332 333 332 332 333 332 332 332 331 330 330 330 329 329 328 327 327 327 326 325 324 324 323 321 320 319
318 317 317 317 317 317 317 316 316 316 315 316 316 315 316 316 316 315 314 314 313 312 311 311 311 311 311 311 311 312 312 312 312 313 313 313 313 313 313 313 313 313 313 313 313 313 313 314 314 313 314 316 321 326 328 330 329 330 331 329 329 330 331 332 333 333 333 332 332 332 332 332 332 331 332 332 332 332 332 331 331 330 329 329 329 328 328 327 326 325 325 324 324 323 321 320 319
316 317 317 317 317 317 317 317 316 317 316 316 315 316 316 315 316 315 313 313 312 311 310 311 312 311 311 311 311 312 312 312 312 313 313 313 313 313 313 313 313 313 313 313 313 313 314 314 314 314 315 320 326 328 328 329 330 329 330 329 329 330 330 331 331 331 332 332 331 330 330 331 331 331 332 332 331 332 331 331 330 330 329 329 329 329 328 327 326 326 325 324 324 323 321 319 319
316 316 316 317 317 317 317 317 317 317 316 316 315 315 316 314 315 315 313 312 311 311 311 311 312 311 311 311 311 311 312 312 312 312 312 312 313 313 313 313 313 313 312 313 313 314 315 314 314 314 317 322 326 328 328 329 331 330 330 330 329 329 329 329 331 332 333 332 330 329 330 331 332 332 332 331 331 331 330 330 329 329 329 328 328 328 328 327 326 326 325 324 323 322 320 320 320
316 316 317 318 318 318 318 317 317 317 316 316 315 316 316 314 314 314 312 312 311 312 312 311 312 311 311 311 311 311 311 311 312 312 312 312 312 312 312 312 312 312 312 313 314 315 316 315 315 315 318 324 326 328 329 330 331 331 330 330 330 329 329 329 331 332 331 329 327 328 329 330 331 331 331 331 331 330 330 329 329 329 328 327 328 328 328 327 326 325 324 323 321 321 321 321 320
316 317 317 318 319 319 319 318 317 316 316 315 315 317 319 315 313 312 312 312 312 313 312 311 311 311 311 310 311 311 311 311 311 311 312 311 311 311 312 312 311 312 313 314 316 316 316 317 316 316 320 325 327 327 329 331 330 330 330 330 329 329 328 328 329 329 328 327 328 328 328 328 328 329 330 330 330 330 330 330 329 329 328 328 328 328 327 326 324 323 322 321 320 320 321 320 320
316 318 318 319 320 319 317 316 316 315 315 314 315 318 319 316 313 312 312 312 312 313 313 312 312 311 311 310 311 311 311 311 311 311 311 311 311 311 311 311 312 312 314 316 316 317 318 320 319 319 322 323 325 327 329 330 329 328 328 329 329 329 329 328 327 327 328 328 328 329 329 328 328 327 327 327 328 329 329 330 329 329 328 327 327 327 326 324 323 322 321 320 321 321 321 320 319
317 319 321 321 321 319 317 316 316 315 315 314 315 317 318 316 313 312 312 312 313 314 313 313 312 311 311 310 310 311 310 310 310 310 310 310 310 310 310 311 313 314 317 318 319 320 320 322 322 321 322 323 324 328 329 329 328 328 327 328 330 330 330 329 328 328 327 326 325 325 326 327 327 326 325 325 325 327 328 328 327 327 326 326 326 325 324 323 322 321 321 321 321 320 320 319 318
320 320 322 322 322 320 318 316 316 316 315 313 315 317 318 316 314 312 312 312 313 314 314 313 312 311 311 310 310 310 310 310 309 310 310 310 310 310 310 311 314 316 318 319 320 322 322 322 324 323 323 325 326 328 329 327 327 328 328 328 329 329 328 328 326 326 324 323 323 322 323 324 324 324 323 323 325 326 327 327 326 325 325 325 324 323 323 322 322 321 321 320 319 319 319 317 316
323 322 321 322 322 321 319 317 316 316 315 315 315 315 317 317 314 313 312 312 313 314 314 313 312 311 310 310 310 310 310 309 309 309 310 310 309 310 311 313 316 317 317 319 319 322 324 323 325 325 324 324 325 326 327 327 327 327 328 327 327 326 326 324 323 323 322 322 322 322 322 322 323 324 323 324 324 324 325 325 325 324 324 324 323 322 322 321 321 320 319 319 318 317 315 313 310
323 323 321 322 322 321 320 318 316 316 316 316 316 316 317 317 314 312 313 312 313 313 314 314 312 311 310 310 310 309 310 309 309 309 309 310 309 309 311 313 317 319 318 319 320 321 323 324 324 325 324 323 324 324 325 326 326 325 325 325 325 324 323 322 322 322 322 322 322 322 322 322 323 323 323 323 323 323 323 324 323 323 322 322 321 321 320 320 319 318 316 315 313 311 309 307 305
321 322 321 321 320 320 320 318 316 316 316 316 317 317 318 318 315 313 312 313 313 314 314 313 312 311 310 310 309 309 309 309 308 308 309 310 308 310 312 313 316 319 318 319 320 319 321 323 324 323 323 323 323 323 324 324 324 324 324 323 323 323 322 321 322 322 322 321 321 321 321 321 322 322 322 321 321 321 321 320 320 320 320 319 319 318 317 316 315 313 310 307 306 305 304 303 302
320 321 321 321 320 320 320 318 315 316 317 318 318 319 319 319 318 314 312 313 313 314 314 312 312 311 310 310 309 309 308 308 308 308 309 309 309 312 314 314 316 317 318 319 319 319 321 322 322 322 321 322 322 322 322 323 323 323 322 322 321 321 321 321 321 321 320 320 319 319 319 319 319 319 320 319 319 319 319 319 318 317 316 315 314 313 311 309 308 307 305 303 303 302 301 300 299
320 320 320 321 320 320 320 318 315 315 317 319 318 319 318 319 319 316 312 312 312 313 313 312 311 310 310 310 309 309 308 308 308 308 309 308 310 314 314 315 318 318 318 320 320 319 320 320 320 321 321 321 321 321 321 321 321 321 321 321 320 320 320 319 319 318 318 318 317 317 317 317 317 316 316 316 316 315 314 313 312 311 309 307 307 305 304 304 304 303 303 302 300 299 298 298 298
320 321 320 321 320 320 320 317 315 315 317 318 318 318 318 319 319 317 313 312 313 313 313 312 311 310 310 309 309 308 308 307 307 308 309 309 311 315 315 317 319 317 317 319 320 319 318 319 320 320 320 320 320 320 320 320 319 319 319 319 319 318 318 317 317 317 316 315 314 314 313 312 311 310 309 308 308 308 307 306 306 305 304 303 303 302 302 301 300 299 298 298 297 297 297 297 298
321 320 320 321 320 321 321 317 315 315 315 318 319 318 318 318 319 318 314 313 313 313 313 312 312 310 310 309 309 308 307 307 307 307 308 309 311 314 315 316 317 316 318 319 319 318 319 319 318 318 318 318 317 318 318 317 317 317 317 317 317 316 316 315 314 313 311 310 309 308 308 306 306 305 304 304 304 303 303 303 302 302 302 301 300 300 299 298 297 297 296 295 295 296 296 296 296
321 321 320 321 321 321 321 319 317 316 316 317 318 319 320 319 319 319 315 312 312 311 311 311 310 310 309 309 308 308 307 307 306 306 308 309 311 312 314 315 315 316 318 318 317 317 318 318 317 317 317 316 316 317 316 315 315 316 316 316 315 313 312 310 309 307 305 305 305 304 304 303 303 302 302 301 301 300 300 300 299 299 299 298 298 298 297 296 296 296 295 295 295 295 294 294 294
321 322 321 320 320 320 321 323 321 321 322 318 317 324 327 322 321 321 315 312 312 310 309 309 309 308 308 308 308 307 307 306 306 306 307 309 310 312 313 314 315 317 317 317 317 316 315 315 315 316 316 315 316 315 315 315 315 315 315 313 311 309 306 305 305 304 304 303 303 302 301 300 300 300 299 299 298 298 297 297 297 297 297 297 296 296 296 296 295 295 294 294 294 293 293 293 293
320 324 324 320 320 321 322 323 323 325 325 319 318 324 327 322 322 322 316 313 313 310 308 308 308 308 307 307 307 306 307 306 305 305 307 308 310 312 313 313 315 317 317 317 317 315 314 315 315 315 314 314 314 314 313 313 312 312 311 308 306 306 305 304 303 303 302 301 300 299 299 298 298 297 297 297 297 297 296 296 296 296 296 296 295 295 295 295 294 294 293 293 293 292 293 293 292
322 325 325 322 320 322 323 322 324 325 323 320 319 322 323 322 322 321 317 314 313 310 308 308 308 307 306 306 306 306 306 306 305 305 306 308 310 312 313 314 315 316 317 317 315 314 314 315 314 313 313 312 312 311 310 309 308 307 306 305 305 305 304 303 302 301 300 299 298 298 297 297 296 296 296 296 296 296 296 296 296 295 295 295 295 295 294 293 293 292 292 292 292 292 291 291 291
323 324 323 322 322 322 322 322 324 323 323 323 321 321 324 323 322 320 318 316 316 313 310 308 308 307 306 306 306 305 305 305 305 305 306 309 311 313 313 315 315 315 316 316 314 313 314 314 312 311 311 310 309 307 306 306 305 305 304 304 304 303 302 301 300 299 298 297 297 297 296 296 296 296 296 296 296 295 295 295 295 295 295 294 294 294 293 292 292 292 292 291 291 291 291 290 290
321 322 322 322 322 321 321 322 323 322 322 323 322 322 324 325 323 321 319 319 319 316 312 309 308 307 306 305 305 305 304 304 304 305 306 309 311 313 313 315 315 315 315 314 313 313 312 311 309 308 308 307 306 305 305 304 304 304 303 303 303 302 301 300 299 298 297 296 297 296 296 296 296 296 296 295 295 295 295 295 294 294 294 294 293 293 292 292 292 292 291 291 291 291 290 290 290
318 321 322 321 320 320 320 320 321 322 322 322 322 322 323 325 326 323 320 320 319 319 314 310 308 307 306 305 305 304 304 304 304 305 306 309 311 313 313 314 314 314 314 313 312 311 309 308 306 306 305 305 304 304 303 303 303 303 302 302 302 301 300 299 298 297 296 296 296 296 296 296 296 296 295 295 295 295 295 294 294 294 294 293 293 292 292 292 291 291 290 290 290 290 289 289 289
318 321 322 321 321 319 320 320 320 322 324 323 322 322 322 324 326 322 319 318 318 318 314 310 308 306 305 305 304 304 303 304 304 305 307 309 311 313 313 313 314 314 313 312 310 308 306 305 304 304 303 303 303 303 302 302 302 302 301 301 301 300 299 299 298 297 296 296 297 296 296 296 295 295 295 295 295 294 294 294 293 293 292 292 292 291 291 290 290 290 289 289 289 288 288 288 288
320 322 322 324 324 322 322 323 321 322 323 319 319 321 323 323 322 320 319 317 316 316 313 311 308 306 306 305 304 303 303 304 304 305 308 309 311 312 313 313 313 313 311 309 307 306 305 304 303 303 302 302 302 302 301 301 301 300 300 300 300 299 298 298 297 297 297 296 296 296 296 295 295 295 294 294 294 294 293 293 292 292 291 291 290 290 290 289 289 289 289 288 288 288 288 288 288
319 320 322 325 325 324 326 325 323 324 322 318 317 319 323 324 321 320 318 314 312 312 312 311 308 306 305 304 303 303 303 304 305 306 308 309 310 311 312 312 311 309 308 306 305 304 304 303 303 302 302 301 301 301 300 300 300 300 299 299 299 298 298 297 297 297 296 296 296 295 295 294 294 294 294 294 293 293 293 292 292 291 291 290 290 289 289 289 289 288 288 288 288 288 288 288 288
317 319 320 323 325 327 329 327 326 326 322 318 318 320 325 325 320 315 312 309 308 310 311 310 308 306 305 304 303 303 303 304 305 306 307 309 309 310 310 309 308 306 305 305 304 304 303 303 302 302 301 301 301 300 300 299 299 299 298 298 298 297 297 296 296 296 296 295 295 294 294 294 294 294 294 294 294 293 293 293 292 291 291 290 290 290 289 289 289 289 289 289 288 288 288 288 288
317 319 320 321 323 325 327 324 321 322 321 319 319 322 323 320 315 310 307 307 307 308 309 308 307 306 304 304 303 303 303 304 305 306 307 308 308 308 308 307 306 305 304 304 303 303 303 302 302 301 301 301 300 300 299 299 298 298 297 297 297 296 296 296 296 295 295 294 294 294 294 294 294 294 294 294 294 293 293 293 292 292 291 291 290 290 290 289 289 289 289 289 288 288 288 288 288
319 319 321 321 322 322 323 321 318 318 322 321 320 322 320 317 316 311 308 308 307 307 308 307 305 305 304 304 303 303 304 304 305 306 306 307 307 306 306 305 305 304 304 303 303 302 302 302 301 301 301 300 300 299 299 298 298 297 297 296 296 295 295 295 295 294 294 294 294 294 294 294 294 294 294 294 294 293 293 292 292 291 291 290 290 290 289 289 289 289 289 288 288 288 288 288 287
320 321 320 320 322 321 320 322 322 322 324 323 321 321 321 321 320 313 309 310 308 307 308 306 305 305 304 303 303 303 304 304 304 305 305 306 306 305 305 304 304 304 303 303 302 302 302 301 301 301 300 300 299 298 298 297 297 296 296 296 295 295 295 294 294 294 294 294 294 294 294 294 294 294 294 293 293 293 292 291 291 290 290 290 289 289 289 289 288 288 288 288 288 287 287 287 287
316 318 318 320 323 322 320 322 323 324 324 324 323 322 320 321 321 316 312 311 309 307 308 307 305 304 304 304 303 303 303 304 304 305 305 305 305 305 304 304 303 303 303 302 302 302 301 301 301 300 300 299 299 298 297 297 296 296 296 295 295 295 294 294 294 294 294 294 294 294 294 294 294 294 293 293 293 292 291 291 290 290 289 289 289 288 288 288 288 288 287 287 287 287 287 287 287
313 314 317 320 321 321 322 321 322 324 324 324 325 324 324 322 320 321 317 312 309 308 307 307 305 304 304 304 303 303 304 304 304 305 305 305 304 304 304 303 303 303 302 302 302 301 301 301 300 300 299 299 298 297 297 296 296 295 295 295 295 294 294 293 294 294 294 294 294 294 294 293 293 293 293 293 292 291 290 290 289 289 289 288 288 288 287 287 287 287 287 287 287 287 287 286 286
314 315 318 319 318 319 321 321 321 322 323 324 324 324 326 321 316 319 318 313 310 309 308 307 306 305 305 304 304 304 304 305 305 305 305 304 304 304 303 303 302 302 302 302 301 301 301 300 300 299 299 298 297 297 296 296 296 295 295 295 294 294 293 293 293 293 294 293 293 293 293 293 293 293 292 291 290 290 289 289 289 288 288 288 288 287 287 287 287 287 287 287 287 287 286 286 286
316 316 317 317 317 318 320 321 321 320 321 324 323 325 328 319 312 314 317 315 312 309 308 307 306 305 305 305 304 305 305 305 305 305 304 304 304 303 303 302 302 302 301 301 301 300 300 300 299 299 298 297 297 296 296 295 295 295 294 294 294 294 293 293 293 293 293 293 293 293 293 293 293 292 291 290 289 289 289 289 288 288 288 288 288 287 287 287 287 287 287 287 287 286 286 286 286
Wind_Speed
4 2 4 3 3 2 2 2 2 3 2 4 4 3 3 2 1 3 5 5 5 7 9 7 7 7 4 2 3 13 17 11 8 5 4 1 3 4 3 3 4 4 6 4 5 13 12 13 12 10 10 9 8 7 5 4 3 4 4 4 4 5 5 6 8 9 10 10 10 10 10 10 9 9 9 8 7 7 7 6 7 8 8 8 8 7 7 7 7 8 8 9 8 8 9 7 4
4 3 5 4 2 3 2 1 1 2 4 5 4 3 2 2 2 6 8 6 6 6 6 6 6 7 4 1 3 10 15 16 16 13 9 4 4 5 3 3 4 5 7 5 2 10 13 12 12 11 10 8 8 6 5 4 2 2 2 3 4 5 5 5 7 8 9 9 10 10 10 9 8 8 8 8 6 5 6 5 6 6 7 7 8 7 7 8 9 10 11 11 10 9 9 7 4
5 4 6 4 3 4 4 1 2 2 4 5 3 2 1 3 6 7 8 8 8 6 3 3 5 7 6 1 5 9 11 14 15 13 11 5 2 5 3 4 4 5 7 5 1 6 12 11 13 11 9 8 8 6 5 3 2 0 1 2 3 4 4 5 6 7 8 9 10 10 9 9 8 8 8 8 6 5 4 4 5 5 5 6 8 8 9 10 11 12 12 12 11 10 8 6 4
5 4 5 4 4 4 3 2 2 2 3 4 3 2 3 6 7 7 9 9 7 5 4 3 3 6 8 6 8 10 9 10 11 9 8 5 4 5 3 4 4 5 9 6 3 4 10 10 12 12 9 8 7 6 5 3 2 1 2 2 3 4 5 6 6 7 8 9 9 9 9 9 9 8 9 8 6 4 3 3 4 4 5 6 8 10 11 12 13 13 13 12 11 10 8 5 4
5 5 4 3 2 2 1 2 1 4 4 2 4 3 6 6 6 8 9 9 7 5 4 4 2 5 9 11 9 5 7 5 6 7 7 7 6 5 4 3 4 5 9 9 3 3 5 7 11 13 10 8 7 6 5 3 2 1 3 3 3 4 5 7 7 8 9 10 9 8 8 9 9 9 9 8 6 4 3 2 3 3 4 6 9 11 13 14 15 15 13 12 11 10 8 5 4
5 5 3 2 3 3 2 2 2 6 4 2 5 4 6 7 8 10 10 9 8 6 5 5 4 7 9 11 13 9 8 4 2 6 6 6 5 5 4 4 5 5 9 10 4 4 1 3 9 13 11 9 8 6 6 4 2 1 2 2 3 3 4 6 7 9 10 10 9 8 8 8 8 8 8 7 6 4 2 1 2 3 5 8 11 12 13 15 16 15 13 12 11 9 7 5 4
5 3 0 3 3 2 2 1 4 5 4 5 6 5 6 7 6 9 9 7 7 7 6 5 4 5 7 7 11 12 10 7 5 6 5 5 6 5 5 6 5 5 9 10 8 5 2 3 7 13 11 9 9 7 6 4 3 2 1 1 2 3 3 5 7 9 10 10 9 7 7 7 7 7 7 6 5 4 2 1 2 4 5 8 10 11 13 14 15 15 13 12 10 8 7 5 4
6 4 1 3 1 1 2 2 6 4 3 6 7 7 8 6 2 3 6 4 4 6 7 6 4 3 5 9 9 8 9 10 10 8 6 5 5 4 5 7 7 7 9 10 9 6 5 4 6 12 11 9 9 7 7 5 3 3 1 1 1 1 2 3 6 8 9 8 7 6 6 6 6 6 6 5 5 4 2 0 3 5 6 8 10 11 12 14 15 15 13 11 10 8 6 5 4
6 6 2 2 1 1 1 4 5 3 5 6 7 8 9 6 2 3 5 6 5 8 8 6 6 3 9 17 12 6 8 10 10 7 5 5 5 4 4 5 8 9 10 9 7 6 6 5 6 10 11 9 9 7 7 6 4 4 3 2 2 1 1 2 4 6 7 6 5 5 4 4 4 5 5 5 5 3 1 1 3 5 7 9 10 11 13 14 14 15 13 11 9 7 5 4 3
5 4 2 2 1 2 1 4 5 4 5 6 7 8 8 5 2 4 4 6 4 6 7 4 6 5 8 15 10 6 7 7 6 5 5 4 4 4 3 3 6 7 9 9 7 6 6 6 7 10 10 9 9 8 8 7 5 5 4 3 2 2 1 2 3 4 6 6 5 5 4 4 3 4 4 3 3 2 0 2 4 5 7 10 11 12 13 15 15 15 14 11 9 6 4 3 3
2 3 0 2 3 2 2 4 5 4 6 6 8 8 7 4 2 2 2 6 3 5 7 4 5 6 2 11 10 6 6 4 3 4 4 3 2 3 3 3 4 5 7 9 7 5 5 6 8 10 10 10 10 9 8 7 6 6 5 4 3 3 2 2 3 4 5 6 5 4 4 3 3 3 3 3 1 1 1 3 4 6 8 10 12 13 15 16 16 15 15 12 9 6 3 2 3
2 1 1 2 3 1 2 4 5 5 5 5 6 6 6 4 2 0 1 5 4 8 11 6 3 5 2 9 9 8 5 3 3 3 3 1 1 1 2 3 4 4 5 7 6 5 5 6 8 9 11 11 11 10 9 8 8 7 6 5 4 4 3 3 3 5 6 6 6 5 4 4 4 3 3 2 0 2 2 2 4 5 7 10 12 15 17 17 18 16 15 13 10 7 4 2 1
3 4 2 2 3 2 3 2 6 5 4 3 6 6 5 4 1 4 4 1 3 7 7 5 4 4 1 10 10 9 4 2 3 3 2 2 1 2 2 3 3 4 5 7 7 6 5 7 8 9 11 12 12 11 11 10 9 8 8 7 6 5 4 4 4 5 6 7 7 6 5 4 4 4 3 2 1 3 4 4 4 6 8 10 13 15 17 17 17 16 15 14 12 9 6 3 1
4 5 2 2 2 2 2 3 4 4 3 4 8 8 5 2 3 5 4 3 7 7 3 3 2 4 1 9 9 5 2 3 3 3 4 4 3 3 3 4 4 4 5 7 7 5 6 7 8 10 11 12 13 13 13 12 11 10 9 8 7 7 6 5 5 6 6 7 8 6 5 4 4 4 3 3 3 4 5 5 5 7 8 11 12 14 15 16 15 14 14 13 12 10 7 5 3
4 4 2 2 1 1 2 2 3 3 3 4 7 10 7 4 3 2 3 5 6 4 3 3 0 2 2 3 4 1 1 4 5 5 5 4 4 4 4 4 5 5 6 6 6 5 6 7 8 10 11 13 14 14 14 13 13 12 11 9 8 8 6 5 5 6 6 7 8 7 6 5 5 4 4 4 5 6 6 6 6 6 8 10 12 12 13 14 13 12 11 12 12 10 8 7 5
4 3 2 1 0 1 0 0 1 1 3 5 6 9 8 5 2 1 2 2 1 1 3 4 3 1 2 1 2 3 5 5 6 6 4 1 2 3 4 3 4 6 6 7 7 6 6 7 8 8 9 11 13 14 14 14 13 13 13 12 10 9 8 7 6 6 6 6 8 8 7 6 5 5 4 5 6 7 7 6 6 6 7 10 11 12 11 11 11 11 10 10 11 10 8 7 6
3 2 1 3 2 2 2 1 2 2 4 5 7 6 4 5 4 1 0 1 1 3 6 6 4 2 3 1 2 4 6 6 7 5 2 3 3 2 3 2 4 6 7 9 9 9 8 8 8 8 9 9 10 11 12 12 13 13 14 14 13 11 9 8 7 6 5 6 7 8 8 7 6 5 5 6 7 7 7 6 6 6 8 11 13 12 10 11 12 11 10 10 11 11 9 7 6
2 1 2 3 1 2 1 2 4 5 5 5 7 2 1 4 5 2 1 3 5 5 8 7 2 2 1 0 3 5 6 6 5 4 4 8 8 5 5 4 5 6 7 9 10 10 10 10 10 10 10 10 10 10 11 12 13 13 13 14 15 14 11 8 7 6 5 5 6 8 8 8 7 7 6 6 7 6 7 7 6 6 8 10 12 11 10 12 14 13 11 10 11 11 11 9 8
2 1 2 2 2 2 4 6 6 3 6 6 6 4 1 2 3 2 1 4 7 5 9 9 6 6 0 1 3 5 4 3 1 2 4 8 10 10 8 6 8 8 7 8 10 10 12 13 12 12 11 11 11 11 13 14 13 12 12 13 14 15 14 11 10 8 6 6 7 7 8 7 7 7 7 6 7 6 7 8 6 6 8 9 10 9 9 10 12 13 12 11 11 11 11 10 9
1 1 2 2 3 4 5 8 8 7 6 4 5 4 0 1 2 2 2 4 3 2 7 8 10 7 1 3 4 4 1 2 2 2 4 6 6 7 7 7 8 8 8 10 11 11 12 13 14 14 13 12 12 12 13 15 14 11 10 11 12 13 14 14 13 11 9 8 8 7 7 8 8 8 8 8 8 8 9 8 7 7 7 9 8 7 9 10 10 11 12 12 13 12 12 11 9
2 2 1 3 2 3 5 7 8 6 5 4 4 2 2 2 3 0 2 4 1 5 6 6 8 5 3 4 4 2 1 3 3 3 4 4 3 3 4 5 6 6 8 10 12 12 12 13 14 15 15 14 13 12 12 13 14 11 9 9 10 12 12 13 13 12 11 10 8 8 8 9 10 9 9 9 9 10 10 9 8 7 6 7 7 7 8 9 10 11 12 14 16 14 13 12 10
3 1 4 4 3 1 5 6 5 3 3 2 1 1 2 1 1 4 4 3 1 4 2 2 2 4 5 5 4 3 2 2 2 3 3 3 3 2 2 3 4 5 7 9 10 11 12 13 14 15 15 15 14 13 10 10 11 11 10 10 10 10 11 11 11 11 11 10 10 11 11 11 10 9 9 9 10 10 9 9 9 8 6 5 6 6 6 8 10 11 12 15 17 15 13 12 11
2 1 4 5 3 2 5 3 2 2 1 1 2 1 1 2 5 6 4 2 4 5 3 2 2 2 4 5 6 5 2 1 1 1 1 1 2 3 3 5 6 7 8 9 10 11 12 12 13 14 14 14 14 12 11 9 9 11 10 10 10 10 10 10 12 13 12 11 12 13 13 13 11 10 9 7 7 9 8 8 8 8 5 4 4 3 4 7 8 10 12 14 15 14 12 12 11
1 1 4 5 3 2 4 3 3 2 2 3 3 2 3 4 5 4 4 5 6 6 4 3 1 3 6 6 6 4 2 1 1 1 2 2 3 4 5 6 7 8 9 9 10 10 10 10 11 12 12 13 13 12 11 9 9 12 12 12 13 13 12 12 13 13 13 13 12 12 12 13 13 12 11 8 8 9 8 8 8 5 4 5 5 5 7 8 8 10 11 12 14 13 13 13 12
2 1 4 3 1 2 2 3 4 4 4 5 5 5 7 9 6 3 6 8 8 6 4 3 4 5 6 5 4 2 2 2 2 3 3 3 4 5 6 7 7 8 8 9 10 9 9 9 10 10 9 11 10 9 10 10 11 14 13 15 17 16 15 14 14 13 13 13 12 12 11 11 12 12 11 10 10 10 9 8 7 6 6 7 7 8 8 8 9 10 10 12 13 12 12 13 12
2 4 4 2 2 4 5 6 7 7 7 7 5 7 11 11 8 2 7 11 8 6 5 5 6 5 4 3 2 2 2 2 3 4 5 5 6 6 7 8 8 9 9 9 9 8 8 8 9 8 8 10 9 10 13 14 15 16 15 16 18 18 17 16 15 14 13 12 12 13 12 11 10 10 10 10 10 10 9 9 9 9 9 8 9 9 8 8 8 8 10 12 12 11 12 12 12
3 5 5 7 9 8 7 8 10 9 8 9 7 7 9 7 7 2 8 12 8 7 7 7 6 4 3 2 2 3 3 3 4 5 5 6 6 7 8 9 10 10 10 9 8 7 6 7 8 9 13 15 15 15 18 19 18 17 17 18 18 18 17 15 14 14 13 11 11 12 12 11 11 11 10 10 9 9 10 11 11 11 9 9 10 10 10 9 8 8 9 11 10 9 11 11 13
2 4 6 10 12 12 11 10 11 8 5 9 10 7 4 6 4 4 11 13 9 9 9 8 7 4 3 3 3 4 4 4 6 6 6 6 7 7 8 9 10 10 10 8 7 6 5 5 7 11 15 17 18 19 20 20 20 19 20 19 19 19 18 16 14 13 12 11 10 10 10 10 12 12 11 11 11 10 11 11 11 11 10 10 10 11 11 9 8 8 8 7 6 7 9 11 13
3 3 4 7 8 9 14 13 11 9 4 7 8 4 6 7 4 7 14 13 11 11 9 9 8 6 5 5 5 5 5 6 6 6 6 7 7 8 8 9 9 8 7 6 4 3 3 4 8 11 14 17 18 19 19 19 20 20 20 20 19 18 16 15 15 14 12 10 9 9 9 10 11 12 12 12 11 11 11 11 11 12 11 11 11 12 12 9 7 5 4 4 4 6 9 11 12
3 4 3 4 5 5 10 12 9 8 4 7 8 1 5 6 8 11 13 14 15 12 10 10 8 7 6 6 6 6 6 7 7 7 7 6 7 8 8 8 6 5 4 3 2 1 2 3 6 9 14 16 16 16 16 16 18 18 16 16 16 14 13 11 11 10 9 7 7 8 9 10 10 10 10 11 11 11 11 12 13 14 14 13 12 12 11 9 5 1 2 2 4 6 8 9 9
3 3 3 2 2 2 3 8 10 6 4 9 8 2 4 4 9 12 13 15 16 13 12 11 9 8 7 7 7 7 7 8 8 7 6 6 6 6 6 6 4 2 1 1 2 4 5 4 4 8 12 13 13 14 14 14 15 14 12 11 11 9 8 7 6 5 5 6 7 8 8 7 7 7 8 9 10 9 10 11 12 12 12 10 8 8 7 4 1 2 3 4 4 5 7 7 7
3 2 3 2 3 2 2 7 11 5 3 10 7 2 2 4 9 13 13 16 15 14 14 12 11 9 8 7 6 7 7 7 8 7 6 6 6 6 5 4 1 2 4 5 5 6 7 6 5 7 8 9 11 11 13 13 12 11 11 10 10 9 7 6 5 5 5 6 7 7 6 6 6 6 7 7 6 4 5 5 4 3 4 4 5 5 2 1 2 4 4 4 5 5 6 8 9
3 3 3 3 3 3 2 4 8 4 4 8 7 3 1 3 10 14 15 17 15 14 14 14 12 11 9 8 8 7 6 5 7 6 5 6 5 4 3 3 3 5 6 6 8 8 7 7 6 8 9 9 11 11 11 13 12 10 10 10 10 9 7 6 6 6 6 4 3 3 2 2 2 2 4 4 3 2 1 1 1 3 2 3 3 2 1 2 4 4 3 3 4 5 7 10 11
3 4 3 5 5 5 3 1 5 6 4 6 7 6 5 3 11 15 17 19 18 16 16 16 14 12 11 10 9 8 6 6 7 6 4 4 3 3 3 5 5 6 7 7 9 9 9 10 9 10 11 11 11 11 11 12 12 11 9 9 8 7 6 4 3 3 2 3 4 5 4 3 3 3 2 3 3 3 2 2 2 1 1 1 0 1 1 2 2 2 2 3 5 7 9 10 9
4 2 2 3 4 5 4 1 5 8 4 5 6 7 8 5 10 15 18 19 19 17 16 17 15 14 13 12 11 10 10 10 10 6 4 4 3 3 5 8 8 7 9 9 9 9 9 11 13 12 11 12 13 11 9 9 10 10 9 8 7 6 6 5 4 5 6 8 9 9 7 5 5 5 5 6 5 4 4 4 3 2 2 2 2 2 2 2 1 1 3 4 6 7 7 7 6
6 3 1 3 3 4 4 2 5 6 3 5 7 6 8 5 8 12 17 19 18 16 15 17 16 15 14 12 13 12 12 12 10 6 6 5 4 5 7 9 10 9 9 10 10 10 10 12 14 13 10 11 14 12 10 10 10 11 10 9 8 9 9 9 8 8 9 10 10 11 10 9 9 8 8 8 7 7 6 6 5 5 4 3 2 2 1 1 1 1 3 4 5 5 5 7 9
6 3 2 5 4 5 4 1 3 2 1 5 6 6 8 7 5 12 19 18 15 15 14 17 17 16 15 14 14 13 12 12 8 8 8 6 6 8 10 10 11 10 9 12 12 11 14 14 13 12 11 11 13 13 12 12 11 11 11 10 10 11 12 10 10 10 9 9 10 10 10 10 10 9 9 9 8 7 7 6 5 4 3 2 1 1 2 2 2 2 4 5 6 6 8 10 11
6 3 4 5 3 6 5 2 3 2 1 4 6 7 8 9 7 9 18 14 14 19 18 18 18 16 16 15 14 14 13 11 8 10 10 8 9 11 11 10 12 11 10 15 16 14 14 13 12 13 14 15 14 14 13 12 11 11 10 10 10 11 11 11 11 11 10 9 9 9 9 9 8 8 7 5 5 5 5 6 6 6 7 7 7 8 8 8 8 7 6 7 8 9 12 13 12
5 3 3 4 3 5 4 2 3 2 1 3 5 7 7 8 8 6 17 16 16 21 19 18 19 17 16 16 16 15 13 11 11 12 11 10 11 13 12 11 13 13 12 16 17 14 12 14 14 14 13 13 12 11 11 10 10 10 9 11 11 11 12 12 11 11 10 9 10 9 9 9 9 9 9 9 8 9 10 10 11 11 12 12 11 11 11 10 10 10 10 11 12 12 13 14 14
3 3 3 4 4 4 3 1 3 3 3 4 4 6 7 7 10 8 13 14 10 11 12 13 16 16 16 16 16 16 14 13 13 12 12 12 13 14 15 13 12 13 15 17 15 12 14 16 14 12 11 10 9 9 9 9 10 11 12 13 13 13 14 13 12 13 13 13 14 14 14 14 14 15 16 15 15 15 14 14 14 13 12 11 10 10 10 11 12 12 12 13 13 13 14 16 16
5 6 6 5 4 6 6 2 3 3 3 4 3 6 7 7 12 9 4 6 7 9 11 11 13 13 14 16 16 14 14 14 15 14 15 15 15 16 16 16 15 15 16 16 14 13 14 13 12 12 12 11 11 11 10 10 11 13 14 14 14 15 16 16 17 18 18 18 19 19 19 18 17 18 17 16 15 15 14 13 12 11 11 10 10 10 11 12 12 12 13 13 13 15 16 16 16
5 7 9 9 7 7 6 1 2 1 3 2 1 3 4 4 9 8 4 4 5 9 10 11 13 13 15 18 17 15 15 15 15 15 16 17 17 18 18 19 19 17 16 15 15 15 14 12 13 14 14 14 14 13 11 11 13 13 13 15 16 19 21 21 21 21 21 20 20 20 20 18 17 16 16 15 14 13 12 12 12 11 11 12 12 12 12 12 12 12 13 13 14 15 15 15 16
4 4 5 9 8 5 4 3 2 1 3 1 3 2 5 4 4 4 5 6 6 8 9 12 16 16 17 19 18 19 19 17 16 16 17 18 19 20 20 21 20 18 19 19 17 16 15 15 15 14 14 16 16 16 15 14 14 15 16 17 19 21 22 23 22 21 21 20 19 18 17 16 15 14 14 13 13 12 12 12 12 12 12 12 12 12 12 13 14 14 15 15 15 16 16 16 17
4 4 3 3 3 2 1 2 2 3 3 2 4 4 5 7 6 6 7 7 7 7 8 10 16 19 19 19 19 21 21 20 19 18 18 19 20 22 22 23 21 20 21 20 17 16 17 16 15 14 15 15 16 16 16 16 16 18 19 19 20 20 20 22 22 20 19 18 17 17 15 15 14 13 13 13 12 12 12 12 12 12 13 13 14 14 15 15 15 16 16 16 16 17 18 17 17
2 1 4 5 3 1 0 1 3 3 3 4 5 4 4 7 5 6 8 7 8 10 10 10 15 19 19 19 19 20 21 21 20 19 19 21 22 24 24 23 23 22 21 20 18 18 17 16 16 15 16 16 16 16 17 17 17 18 18 18 19 20 19 20 20 19 18 16 15 15 14 13 13 12 12 12 12 12 12 13 13 13 14 15 15 15 16 16 16 16 16 17 18 18 18 18 18
3 3 6 6 3 3 1 2 2 1 4 5 5 5 4 6 4 6 6 6 9 9 8 10 16 20 20 20 20 19 20 20 19 19 20 23 25 26 25 24 24 23 21 20 20 19 18 18 19 18 18 18 18 17 17 18 18 17 17 16 16 17 18 18 18 17 16 14 13 13 12 12 11 11 11 11 11 11 12 12 13 14 14 15 15 15 15 15 16 16 16 17 17 16 16 16 15
8 5 5 4 2 3 2 1 2 0 6 6 8 9 6 5 3 5 5 4 6 6 6 8 14 20 21 20 21 21 21 20 20 21 22 24 26 26 26 25 25 24 23 22 22 22 22 22 22 21 21 20 19 19 18 18 18 16 16 15 14 14 15 15 15 15 14 12 11 11 11 10 10 9 9 9 9 10 11 11 12 13 13 13 14 13 13 14 14 14 14 13 13 13 12 12 12
7 4 4 3 1 3 2 2 2 2 7 4 8 11 10 8 4 2 2 2 1 5 8 10 13 19 23 22 23 23 23 23 23 24 25 26 27 27 27 27 27 26 25 25 25 26 26 25 24 23 22 21 20 19 18 17 18 16 15 14 13 13 13 13 13 13 12 11 9 9 9 8 7 7 7 7 8 9 10 10 11 12 12 12 12 12 12 12 12 12 12 11 11 11 11 11 11
3 4 5 4 1 0 0 3 3 4 6 2 2 5 8 9 6 5 6 2 3 2 8 16 18 22 24 24 24 24 24 25 26 27 28 28 29 29 29 29 28 27 27 28 29 29 28 26 25 24 23 22 21 20 19 18 18 17 15 14 13 13 13 12 11 11 11 9 8 8 7 7 6 6 6 7 8 10 10 12 12 13 13 14 13 13 13 13 12 12 12 12 12 13 13 13 14
6 6 6 5 4 3 4 4 3 5 5 3 2 2 2 4 5 8 6 5 4 4 9 21 25 26 26 25 25 24 25 27 27 28 29 29 30 30 31 30 30 29 30 31 31 30 29 27 26 24 24 23 22 21 20 19 18 16 15 14 13 13 12 12 11 11 11 10 9 8 7 7 6 6 7 9 10 12 13 14 15 15 15 15 14 14 14 14 14 14 14 15 15 15 16 16 17
8 6 6 6 5 4 4 4 3 3 1 3 3 2 3 3 2 2 3 7 5 6 12 21 23 25 26 25 25 25 25 27 28 29 30 30 31 32 32 32 32 32 33 33 32 31 29 28 26 25 25 24 23 22 21 19 18 16 15 14 13 13 12 12 12 11 11 10 9 8 7 7 6 7 8 10 12 13 14 14 15 16 16 16 16 16 16 16 16 17 17 17 17 17 18 18 19
5 4 6 6 4 3 2 2 2 1 1 2 2 3 4 3 0 2 6 7 5 5 13 20 20 22 25 24 25 26 27 28 29 30 31 32 33 33 34 34 34 35 34 33 32 31 30 28 27 26 24 24 23 22 21 19 17 16 16 15 14 14 13 13 12 12 11 10 9 7 6 5 5 6 8 9 11 11 12 13 14 15 15 15 16 16 16 16 16 17 17 17 17 17 18 18 18
3 4 6 4 2 3 3 1 2 2 3 3 4 4 4 1 1 2 6 5 4 2 8 17 19 22 25 24 26 27 28 30 31 32 32 34 35 35 35 36 36 36 35 34 33 31 30 29 28 27 25 24 23 22 21 19 18 18 17 17 16 15 14 13 12 11 11 10 8 6 4 4 4 5 6 8 9 10 10 11 12 13 13 13 14 14 14 15 15 15 15 15 15 15 16 16 16
4 5 6 3 4 1 1 1 1 2 5 4 5 6 4 3 3 2 5 5 5 5 6 12 17 21 23 23 26 28 29 30 31 32 33 35 36 37 37 37 37 37 36 35 33 31 30 29 28 27 26 25 24 22 21 20 19 19 18 18 16 16 15 14 13 11 10 9 7 5 4 2 2 3 5 6 7 8 9 10 11 11 12 13 13 13 13 13 13 13 13 13 13 13 14 14 14
3 2 3 3 1 1 3 2 2 4 5 4 4 7 6 7 6 4 7 10 10 9 8 9 14 20 22 23 26 28 29 31 32 34 35 37 38 38 38 38 37 37 36 35 33 32 31 29 28 27 25 24 24 23 22 21 20 19 18 18 17 16 16 14 13 11 10 8 7 5 4 2 1 2 3 4 6 7 8 9 10 11 12 12 13 12 12 12 12 12 12 12 12 13 13 14 15
2 1 2 1 2 3 4 3 2 3 4 4 2 4 5 6 7 9 12 13 12 12 11 10 14 20 23 25 28 30 31 34 35 36 38 38 39 39 39 39 38 37 36 35 34 33 32 30 29 28 27 25 24 23 23 22 21 20 19 18 18 17 16 15 13 12 10 9 8 6 4 2 1 1 3 4 5 6 7 9 10 11 12 12 12 12 12 12 13 13 13 13 14 14 14 15 15
4 3 4 4 2 1 1 2 2 3 3 3 3 5 5 4 2 7 13 12 13 15 14 12 16 22 25 27 31 33 34 36 37 38 39 40 40 40 40 39 39 38 37 36 35 34 33 32 30 29 28 27 26 25 24 22 21 20 19 18 18 17 17 15 14 13 12 11 9 7 5 3 3 3 3 3 4 5 7 9 10 12 13 13 14 14 14 14 14 14 14 14 14 15 15 16 16
9 8 8 9 7 4 2 4 4 3 2 3 4 5 5 3 2 0 5 7 11 16 15 13 19 25 26 27 31 34 36 37 38 39 40 41 42 42 41 41 40 39 39 38 37 35 34 33 32 30 29 27 26 25 24 23 22 21 20 19 19 18 17 16 15 14 13 12 10 8 6 5 4 3 3 3 4 6 7 9 10 12 13 15 15 16 16 16 16 16 16 15 16 16 16 16 17
Wind_Direction
14 89 112 101 108 60 10 20 289 233 155 74 85 101 65 66 134 82 75 85 80 46 43 46 26 7 17 32 49 64 52 47 55 67 107 94 44 32 62 73 358 66 160 206 158 173 172 174 171 157 156 157 158 152 159 152 126 111 96 79 77 69 69 95 105 113 117 113 108 105 107 106 98 88 84 76 70 62 55 53 54 61 69 74 72 64 49 37 24 12 5 2 358 358 2 5 9
38 98 109 101 85 16 330 158 248 232 111 78 65 87 133 131 67 57 57 61 68 59 60 47 40 26 14 120 108 77 54 55 76 91 95 75 49 40 71 63 14 82 152 196 151 175 175 175 179 166 157 159 162 161 164 167 157 123 97 85 90 85 75 93 105 111 113 110 108 105 100 97 92 84 83 78 75 65 58 55 55 59 63 64 58 46 28 15 3 355 348 346 345 346 350 356 1
49 84 112 97 357 311 290 201 238 267 109 96 79 98 221 86 66 62 61 62 69 61 69 68 64 16 334 187 84 80 62 56 74 90 86 79 44 40 70 55 30 98 141 182 294 187 181 175 180 175 163 162 165 167 166 161 167 143 64 99 105 101 94 102 112 116 116 112 110 109 99 91 87 79 81 84 79 67 63 56 53 57 55 46 34 22 10 3 357 351 345 343 342 343 345 350 0
53 81 107 69 341 279 268 221 241 340 70 102 96 71 58 76 76 75 72 71 66 42 24 41 75 27 13 32 46 68 59 48 61 74 87 76 64 58 71 59 52 102 133 161 289 221 179 174 180 181 172 168 171 172 173 165 156 21 35 87 109 115 111 113 122 127 126 121 116 110 95 86 84 78 80 83 82 76 68 53 50 50 41 25 11 5 2 1 0 359 353 351 350 350 350 346 354
78 99 96 45 333 269 295 273 300 48 30 80 107 84 81 83 87 89 86 82 65 44 27 15 75 80 53 36 37 50 20 38 53 45 77 71 68 83 85 77 68 93 130 145 273 267 160 168 179 184 183 174 178 177 181 178 162 38 43 60 87 109 115 117 127 133 130 126 119 104 92 87 82 79 78 81 85 85 74 60 53 27 8 4 1 1 1 2 5 6 1 359 358 358 357 350 351
80 87 80 335 288 295 309 280 57 83 1 11 110 91 84 85 93 101 102 97 79 65 44 19 37 83 83 62 61 52 30 58 41 34 75 78 83 105 106 96 78 95 124 133 218 266 120 178 178 182 187 181 184 183 187 186 183 186 52 45 57 82 99 112 125 136 135 129 122 108 101 94 85 81 80 83 91 96 89 59 33 7 2 3 1 1 1 2 6 9 6 4 3 4 2 357 359
52 41 55 296 284 277 278 282 68 85 0 21 99 99 89 90 110 124 118 113 104 87 59 51 32 64 110 109 71 47 50 77 63 61 78 87 95 118 128 112 95 106 122 140 199 232 228 222 183 181 184 184 189 191 192 190 195 199 137 51 46 62 74 105 123 136 139 133 123 109 104 99 91 86 84 90 98 102 104 39 353 357 6 8 2 0 360 1 6 8 9 9 7 8 9 6 13
31 357 297 294 296 210 283 53 63 78 56 45 67 80 94 94 92 118 105 92 107 97 66 64 15 349 116 113 91 49 52 68 59 61 70 95 98 117 140 128 122 122 133 161 201 218 216 213 188 185 183 185 191 197 199 199 207 208 202 169 140 72 60 99 123 136 142 133 121 112 108 101 92 90 91 101 109 110 116 70 340 348 1 3 356 356 357 357 2 7 9 11 10 10 15 20 32
351 326 308 279 272 230 324 88 87 91 103 87 79 84 95 97 31 6 96 104 89 78 59 33 2 346 109 96 97 77 56 57 51 54 65 90 96 107 141 148 140 142 156 177 206 222 224 209 191 189 185 189 195 202 206 208 219 220 222 196 180 180 84 105 129 139 148 141 124 121 127 115 101 98 101 113 125 131 136 341 341 348 353 353 350 353 353 352 356 5 9 10 11 12 23 36 57
310 286 324 316 277 212 202 111 108 103 95 91 99 106 106 107 67 10 66 104 81 80 67 14 20 22 109 101 100 91 68 57 48 52 63 79 102 113 133 159 156 155 163 177 205 223 221 208 193 191 189 190 196 206 209 211 218 219 221 210 204 199 157 147 155 157 161 160 140 131 148 142 123 107 105 116 135 147 86 345 341 345 350 353 353 353 351 349 350 359 7 7 7 9 27 51 76
289 235 15 320 269 204 187 112 109 114 108 96 94 107 111 103 100 33 63 96 93 102 69 5 29 5 55 104 105 114 92 72 57 43 54 70 99 125 136 157 178 167 164 177 204 219 207 207 198 195 194 189 193 203 208 211 213 213 218 217 220 224 193 168 180 182 171 169 161 153 165 164 154 127 116 116 151 203 325 341 335 342 350 353 354 353 349 347 345 350 0 5 4 0 13 55 82
314 266 80 273 276 47 27 104 112 108 120 129 112 115 118 119 162 155 94 106 129 109 65 20 35 346 325 112 125 156 143 78 59 36 28 27 79 161 164 172 184 181 178 180 202 220 208 210 206 202 200 193 192 201 207 211 214 214 220 221 222 233 224 206 207 195 179 174 175 176 177 177 183 163 138 141 204 245 272 313 322 334 345 353 355 353 349 345 342 342 351 1 2 355 347 5 75
350 347 11 274 289 40 6 69 105 112 141 137 111 121 134 145 174 26 22 51 114 101 68 36 47 340 10 117 140 172 167 42 42 34 352 309 274 227 209 204 193 188 190 188 200 214 216 213 208 209 205 198 197 203 209 212 217 217 221 225 224 229 229 229 227 210 192 184 186 190 189 187 194 187 177 186 216 251 270 290 312 336 353 2 0 356 351 345 341 337 344 355 0 357 341 329 337
6 353 346 273 318 32 30 80 119 145 155 102 108 132 140 109 68 28 347 9 68 80 87 78 42 321 51 118 138 169 150 17 0 348 330 302 273 250 232 223 209 202 200 202 204 201 215 219 212 212 209 205 203 206 209 211 217 221 224 226 227 227 225 227 226 218 206 195 196 197 198 198 203 204 204 216 231 248 268 292 315 346 4 5 1 0 357 350 345 339 340 350 358 359 345 327 318
358 339 298 285 351 28 39 80 149 170 144 112 125 143 133 86 95 56 10 44 68 66 65 98 116 325 347 104 126 196 320 347 326 320 323 297 270 255 242 234 216 211 211 210 215 210 213 224 222 216 210 208 208 209 211 213 217 223 227 227 228 229 227 222 215 215 214 206 202 202 203 204 215 230 243 239 241 252 266 292 322 353 5 4 0 1 1 356 351 346 345 350 356 360 353 332 316
342 341 313 292 187 161 228 64 92 147 117 114 136 152 143 118 134 75 48 49 95 133 68 111 155 227 295 54 75 310 315 324 313 309 309 286 292 281 262 253 237 222 220 218 220 220 213 221 227 224 214 208 209 210 211 213 216 224 230 230 230 230 229 224 217 213 212 209 208 212 213 212 223 237 254 248 248 257 259 287 328 345 351 356 355 355 2 357 350 347 348 352 356 359 357 342 319
349 16 307 255 200 139 198 172 96 128 113 122 142 163 164 134 154 157 103 285 241 176 123 131 157 195 246 7 355 313 311 307 301 292 230 127 84 326 284 256 248 236 229 232 227 225 221 219 221 225 221 208 206 206 209 212 214 222 229 233 234 232 228 224 224 220 214 212 212 216 220 223 232 240 251 258 264 262 260 287 318 320 328 343 346 348 356 353 348 345 344 350 354 356 356 348 327
338 354 242 267 171 101 314 54 97 149 134 134 131 110 332 126 145 153 246 229 217 194 131 140 152 117 183 54 330 312 302 296 285 251 176 148 145 186 237 221 238 247 238 241 240 237 232 228 221 221 223 213 202 192 199 212 214 218 226 231 234 236 234 231 234 233 224 220 214 212 219 230 240 243 245 257 267 264 269 291 307 302 312 332 339 342 350 348 346 346 343 346 351 355 355 350 338
317 304 283 335 46 49 4 60 63 60 105 121 115 90 33 88 108 124 266 227 211 192 128 139 114 85 232 239 329 313 294 299 237 200 157 164 175 198 228 232 240 250 249 248 245 241 238 237 230 225 223 217 209 193 194 208 215 217 225 231 234 236 236 235 237 236 231 229 222 209 212 227 240 249 251 255 256 257 274 289 294 292 306 325 335 344 349 343 346 350 348 348 350 354 357 353 346
33 337 330 44 79 73 45 69 65 41 69 100 105 97 353 58 96 114 306 287 249 113 109 130 112 98 275 284 321 310 288 67 107 130 139 171 194 212 232 242 248 252 252 252 248 246 245 245 241 235 229 220 215 204 195 201 211 214 220 229 233 235 233 233 236 238 234 227 226 219 214 221 229 240 249 249 248 257 271 281 284 288 306 318 330 349 345 335 338 346 348 351 354 356 359 355 348
346 346 42 65 35 81 78 77 79 63 55 52 67 50 311 147 135 233 281 300 341 80 82 113 122 136 223 273 298 276 134 83 98 110 126 151 174 209 234 245 252 256 255 259 258 257 253 251 248 243 238 229 219 213 200 193 203 205 208 222 229 233 230 229 232 237 235 224 222 226 222 226 230 233 244 250 255 264 270 277 284 293 312 317 324 338 330 324 328 337 346 351 353 356 360 358 353
315 30 90 71 1 51 104 88 88 78 57 58 28 325 338 119 219 263 245 265 134 121 97 108 147 202 221 240 236 210 163 89 103 118 128 139 155 196 234 248 255 262 263 268 267 266 262 257 254 250 247 238 223 214 198 182 192 193 198 215 221 229 229 224 226 229 230 223 222 227 223 228 233 234 244 254 260 266 269 277 286 292 308 313 313 322 318 319 322 330 343 349 351 357 4 3 2
326 92 87 68 13 46 109 119 139 104 30 242 260 258 344 335 288 267 232 200 175 182 228 288 290 228 187 188 182 184 164 110 152 131 169 190 217 241 255 263 264 267 269 271 270 272 270 265 260 253 249 243 230 211 191 182 188 184 191 207 211 220 225 221 217 216 219 220 222 224 219 221 228 233 240 242 249 262 269 273 278 284 290 279 281 293 290 298 308 319 335 344 348 356 7 10 11
274 224 106 84 14 25 112 155 193 186 234 239 276 289 273 281 280 255 177 169 200 214 255 272 234 159 152 152 156 159 147 194 245 252 271 268 268 265 265 267 268 272 275 276 274 273 271 269 264 253 244 239 232 210 186 180 184 182 190 198 203 209 213 216 214 211 216 221 221 220 219 222 225 229 232 229 235 246 250 256 265 272 251 225 225 235 255 272 289 306 323 334 340 352 7 10 14
256 8 85 83 326 288 182 183 214 217 222 241 266 269 261 255 252 233 165 178 213 224 237 206 165 150 148 141 141 155 182 224 258 262 272 278 278 275 275 277 279 281 280 281 280 276 271 260 253 246 231 221 218 198 177 181 188 189 196 198 203 207 208 214 214 211 213 218 220 218 221 226 226 228 231 233 237 235 230 243 257 245 224 222 226 238 252 261 276 297 317 329 338 354 5 5 10
3 14 17 344 259 248 223 207 221 220 219 232 237 246 258 246 235 229 167 187 211 207 191 166 156 151 147 150 171 205 229 240 262 270 276 278 281 283 285 288 289 290 289 287 283 277 267 250 240 219 183 176 177 174 177 189 194 193 199 202 205 208 210 215 215 212 213 219 224 222 220 223 229 230 231 234 230 219 219 229 234 230 231 231 226 228 237 247 268 297 315 325 336 353 4 3 5
13 351 324 292 268 258 231 220 233 226 221 216 203 248 258 213 209 218 170 193 206 183 168 153 154 166 174 198 217 233 239 242 251 255 262 265 270 276 280 288 291 291 290 282 276 270 257 240 224 191 170 165 169 180 188 192 194 195 200 204 205 207 211 215 216 215 218 227 231 233 231 229 234 229 228 237 227 219 229 234 230 231 235 234 229 234 246 256 274 290 303 318 333 350 360 358 355
7 327 300 274 258 250 232 228 236 224 218 207 204 257 249 161 207 205 173 189 189 166 158 153 162 182 202 220 231 245 249 251 255 252 255 259 264 271 274 276 276 278 277 272 266 258 246 219 199 190 181 177 179 187 191 192 193 196 200 202 202 206 212 212 211 212 217 226 230 236 238 235 235 229 227 233 234 235 240 245 243 239 239 238 240 247 255 260 266 275 293 316 333 348 350 345 343
310 280 285 283 265 246 223 214 217 206 194 190 189 265 241 191 186 165 171 178 163 157 158 158 173 194 212 231 232 238 247 251 257 259 260 261 266 268 268 266 261 262 264 267 265 242 225 189 183 189 184 181 185 188 194 198 196 198 200 201 202 206 211 210 208 212 217 224 229 235 238 237 236 234 231 234 247 252 245 246 245 240 239 236 238 244 245 242 245 269 306 329 335 340 338 333 336
278 246 216 287 295 267 211 190 179 176 174 175 165 263 251 194 150 151 168 168 156 159 166 168 183 198 210 224 232 232 233 243 247 248 254 256 261 262 262 261 255 253 254 261 265 158 120 143 163 177 178 180 185 188 194 199 199 199 197 197 203 209 213 212 214 221 226 233 247 250 243 239 242 250 252 250 259 268 267 257 242 237 234 232 239 238 232 226 225 286 333 324 331 329 327 329 334
264 266 198 220 271 290 185 153 150 158 184 176 168 263 261 144 142 162 172 168 163 166 173 177 185 197 209 212 225 234 228 238 246 246 252 254 256 259 258 255 249 245 227 105 105 90 88 96 121 155 175 180 180 187 194 196 200 199 188 180 183 195 204 209 223 238 239 241 254 257 246 239 246 261 264 259 256 264 275 261 240 236 231 226 226 214 209 211 194 352 317 311 323 320 318 324 330
203 234 255 230 195 221 162 155 169 169 175 180 179 261 233 141 156 170 175 174 173 175 177 181 186 192 204 202 205 227 232 236 247 250 252 257 258 256 249 236 213 113 101 96 101 92 89 98 114 134 153 164 165 178 190 192 192 184 180 180 174 176 183 182 199 233 246 241 244 246 243 242 246 261 272 279 272 256 266 258 229 205 199 182 168 167 158 357 325 309 302 305 314 314 314 321 325
203 185 252 256 212 210 153 176 202 174 138 186 203 250 283 142 167 177 182 181 181 186 182 181 187 188 190 191 190 211 232 237 247 250 250 261 258 249 236 187 131 109 116 112 107 106 103 107 122 138 136 139 156 165 167 173 178 165 164 177 179 183 191 187 199 229 246 230 209 201 207 219 224 259 267 264 251 229 253 268 134 122 135 138 138 123 356 294 289 291 287 293 309 317 315 317 318
230 186 214 245 241 233 192 207 227 190 173 208 210 234 265 173 167 181 188 185 187 194 187 182 187 187 188 193 193 200 205 214 240 250 252 263 244 216 187 141 119 112 124 122 113 119 126 126 132 142 144 145 157 162 146 149 169 172 164 164 165 175 184 182 185 205 198 138 98 87 85 81 93 98 115 147 175 205 196 156 131 101 97 119 264 300 263 241 260 271 285 307 315 316 314 320 327
261 227 205 254 261 250 239 150 185 186 204 242 210 222 248 202 169 185 192 190 194 200 192 185 187 190 193 196 193 188 189 209 236 245 235 235 213 192 169 138 129 122 119 122 125 128 130 138 142 135 137 144 150 159 150 142 155 162 162 162 165 166 156 138 124 119 110 101 93 91 94 99 118 125 116 112 116 133 146 144 143 143 144 165 196 188 178 176 183 273 324 325 326 329 333 352 19
285 303 292 295 304 280 281 102 169 181 193 238 228 235 251 225 176 185 195 195 200 206 193 183 185 189 193 193 192 188 193 216 233 224 212 212 195 164 148 138 138 135 128 130 130 133 135 136 139 135 133 135 136 144 150 151 150 145 145 148 151 144 132 128 123 118 115 112 111 114 118 121 128 134 134 135 133 129 133 137 142 149 154 168 180 178 194 218 238 333 21 20 20 26 35 46 49
281 312 288 283 288 275 280 136 169 170 175 230 236 251 260 256 216 188 192 195 203 208 189 180 186 189 191 190 188 187 195 217 223 200 198 196 171 148 140 140 143 144 148 145 132 135 143 135 131 137 145 144 138 141 143 145 147 146 148 145 140 134 130 135 136 133 131 128 128 132 135 136 138 141 141 144 148 145 144 143 143 143 135 127 92 54 43 43 35 59 76 73 67 60 53 50 47
257 268 275 276 262 265 270 174 157 96 72 248 254 264 262 261 257 185 176 186 206 207 192 186 191 189 191 190 183 185 197 210 201 188 191 180 160 149 144 147 148 145 150 151 142 138 144 141 138 138 141 143 140 141 143 143 145 149 153 151 147 142 140 146 145 139 136 135 137 139 139 139 139 139 136 137 139 132 126 122 117 107 95 86 82 80 76 73 70 68 63 55 49 43 40 37 33
243 239 265 267 259 274 280 128 141 119 123 258 267 274 267 263 274 199 177 192 208 207 200 194 193 187 185 185 182 188 197 198 188 186 185 171 162 157 154 154 148 145 154 157 145 139 150 150 145 140 136 134 133 137 141 143 147 148 153 154 154 156 151 150 145 137 136 136 134 133 131 126 123 117 109 105 105 102 98 97 93 91 89 85 85 84 80 75 68 60 48 40 33 30 29 24 20
238 228 242 248 244 258 267 154 179 182 209 264 298 289 272 264 270 241 192 190 185 183 184 183 185 185 186 187 188 192 192 185 183 186 179 168 166 166 167 164 153 153 162 159 143 142 156 148 139 145 146 139 143 148 145 148 151 151 154 152 152 156 149 145 141 132 129 128 124 122 118 114 112 109 105 102 101 98 95 92 89 87 86 82 79 75 71 63 55 49 44 37 27 21 21 19 18
229 218 222 238 235 228 237 217 178 194 226 237 289 293 269 239 241 241 174 146 146 157 166 166 170 177 182 183 184 190 193 186 183 183 179 172 170 170 172 172 166 164 162 156 150 156 158 147 143 153 151 146 150 150 146 146 150 154 156 153 151 146 137 133 131 124 121 120 117 114 111 108 108 105 103 101 98 96 93 91 87 84 79 73 66 59 56 53 48 42 36 30 23 22 21 18 17
243 220 213 219 235 245 257 297 82 355 291 213 155 280 271 231 228 222 148 150 179 174 182 186 183 182 181 180 178 179 183 186 188 185 180 176 173 172 172 172 172 170 167 163 160 161 162 158 158 159 157 154 153 152 151 152 156 160 158 151 145 137 129 126 123 121 120 118 114 112 110 108 107 105 103 99 95 91 86 82 75 69 64 60 55 51 50 46 39 34 29 23 21 21 18 13 16
253 255 222 208 223 258 291 337 37 273 284 253 141 213 270 294 271 227 172 193 198 179 194 200 195 196 193 189 188 183 179 179 183 185 183 178 175 173 171 171 171 171 171 168 162 161 165 166 164 166 164 160 158 156 155 155 153 151 148 142 137 132 128 125 123 122 121 117 114 113 110 107 103 98 94 88 83 77 71 66 61 55 52 49 46 40 37 34 29 27 23 18 17 16 11 9 14
238 298 354 154 189 250 269 306 252 239 305 278 170 170 272 280 257 218 178 186 203 194 204 203 194 198 200 197 197 194 187 183 181 183 184 178 173 174 173 172 171 171 170 169 167 168 169 168 167 167 164 162 159 152 146 144 141 140 140 137 132 131 128 125 125 123 119 118 115 112 107 102 95 88 83 77 72 66 60 55 50 44 40 37 33 29 28 27 24 22 19 15 14 11 9 10 11
227 322 45 85 92 54 65 239 244 278 324 264 186 152 260 274 242 193 173 191 218 208 203 202 191 192 195 194 194 195 193 192 188 183 181 177 174 176 177 174 171 171 172 172 173 173 172 169 166 161 158 155 149 142 139 139 139 137 136 135 132 130 128 126 126 122 118 118 115 109 104 97 91 84 77 70 64 57 50 45 40 34 31 29 25 24 23 21 18 15 12 10 9 7 6 6 3
182 119 72 72 72 67 76 234 222 297 274 236 189 162 219 273 249 172 174 216 230 216 197 190 185 184 188 187 185 186 187 188 188 182 179 179 177 177 176 174 171 172 175 177 177 175 170 165 161 157 153 148 144 142 141 139 139 139 137 137 136 132 131 129 126 122 120 119 113 107 101 93 86 78 70 63 55 48 42 36 31 25 23 21 18 16 14 10 8 6 4 3 1 359 358 358 357
145 127 85 81 70 70 62 241 123 319 262 220 186 187 200 270 259 171 187 238 221 191 161 166 175 176 180 182 180 180 179 178 179 181 182 183 180 176 175 174 174 176 178 178 176 172 167 162 159 155 150 146 144 143 142 141 141 143 143 142 140 136 134 131 129 126 122 120 113 105 98 89 83 74 65 57 48 42 35 28 23 19 17 14 10 8 5 3 3 2 1 0 358 358 359 359 359
136 123 112 105 37 47 38 250 150 218 255 214 183 196 202 232 268 174 196 298 119 146 153 164 168 171 175 178 179 179 178 176 178 184 187 185 181 177 176 177 178 180 179 176 173 168 165 161 158 154 150 147 146 145 146 146 147 149 149 147 144 140 137 135 134 130 126 122 115 107 102 96 87 78 67 56 46 39 32 25 21 18 15 13 11 9 8 7 6 5 4 3 3 3 5 4 2
156 132 130 128 162 322 266 208 181 225 249 268 203 208 215 232 255 235 210 158 67 85 160 169 166 167 172 173 176 180 181 180 182 186 188 184 181 178 178 179 180 180 177 174 171 168 165 162 159 155 152 151 150 150 152 153 154 156 155 153 150 146 143 142 141 135 132 129 124 118 114 105 95 85 70 54 45 37 29 24 20 17 15 13 12 10 9 8 7 6 5 5 5 4 4 3 2
183 160 152 163 174 217 239 209 216 235 238 284 278 220 258 270 264 247 221 132 93 61 147 167 166 166 170 172 176 181 184 186 187 188 187 183 180 179 179 180 179 177 175 174 171 169 167 163 161 160 158 157 157 158 159 160 160 160 159 159 157 155 152 150 147 143 140 137 133 128 121 111 97 79 61 44 36 29 21 16 13 11 10 8 8 6 5 5 4 4 3 2 1 0 359 358 356
196 178 171 188 178 192 220 202 227 242 240 298 272 187 192 210 258 264 87 89 86 80 131 155 161 164 168 170 174 180 184 187 189 189 185 182 180 180 179 179 178 176 176 175 173 171 169 166 165 165 165 164 164 164 165 165 165 164 165 166 164 162 160 156 152 148 146 143 138 133 121 106 82 57 42 30 23 17 10 7 5 2 1 360 358 357 356 355 354 353 352 352 352 351 350 349 348
209 174 188 215 194 180 208 192 178 137 352 283 229 235 222 196 144 91 95 87 81 92 130 141 148 158 164 168 174 179 183 186 190 189 184 182 181 181 180 179 178 178 177 177 176 174 172 169 168 171 173 171 170 169 169 170 171 171 171 171 169 166 162 160 156 152 150 145 140 133 115 92 65 40 29 20 14 8 3 359 356 353 351 349 346 345 344 342 341 341 340 340 340 339 338 339 339
188 173 198 206 141 168 210 266 76 103 276 254 177 245 281 248 275 154 130 108 105 145 145 140 148 159 164 171 177 180 183 186 189 188 184 183 182 181 182 181 180 180 179 179 179 177 175 174 174 176 178 177 174 173 173 175 177 176 175 174 171 168 166 165 162 158 154 150 145 136 118 90 60 33 23 16 8 2 357 352 348 344 342 340 338 337 336 334 333 333 332 331 331 330 330 331 333
138 183 192 117 51 29 177 255 352 167 250 256 177 208 225 198 234 174 149 163 171 197 179 150 155 164 170 178 181 182 184 187 189 188 186 185 184 184 184 183 183 182 182 182 182 180 179 180 181 182 183 181 178 178 178 180 181 181 179 177 174 172 171 170 168 164 162 160 157 153 145 120 61 33 20 12 2 354 347 342 340 339 338 336 335 335 333 332 331 329 328 327 326 327 328 330 331
107 185 195 128 118 226 159 189 233 198 231 271 206 206 204 202 207 170 183 198 185 185 188 171 170 175 178 181 182 184 185 187 190 188 188 187 187 187 186 185 186 185 186 186 184 183 183 185 187 187 187 185 182 183 183 184 186 185 184 181 178 177 175 175 175 174 174 174 176 177 174 165 84 29 8 356 345 339 338 338 339 338 338 337 336 336 334 332 330 329 328 328 328 329 329 330 330
40 357 256 147 157 194 176 181 201 187 221 269 237 211 220 217 196 180 195 200 181 176 187 189 184 182 182 182 183 185 186 189 191 189 190 190 189 189 189 188 188 188 189 189 188 187 188 189 190 190 190 188 187 188 188 189 189 189 188 185 182 181 181 183 183 184 187 189 192 193 189 190 211 314 323 324 325 333 340 342 343 342 342 341 339 338 336 333 331 330 329 328 328 329 328 329 329
185 182 199 196 173 140 165 218 203 173 206 243 246 254 249 238 205 185 190 189 179 179 184 188 185 184 186 187 186 187 189 192 193 192 192 192 192 192 192 191 191 191 193 192 191 191 192 193 194 193 193 192 191 192 192 193 193 192 192 189 188 188 188 190 192 194 197 199 201 201 202 215 242 272 290 310 328 340 346 345 345 345 343 342 340 338 336 333 331 329 327 327 326 326 326 327 328
194 192 192 192 183 160 176 227 211 184 196 200 213 259 256 239 333 9 165 171 179 181 179 176 180 184 188 192 192 191 193 195 195 194 194 194 195 194 194 194 195 195 196 196 195 195 196 197 197 197 196 196 196 197 196 197 196 195 195 194 194 194 194 196 199 201 203 205 206 207 212 225 239 256 280 319 335 341 344 344 344 343 341 339 338 336 334 332 330 328 327 326 325 325 325 326 326